Location: Adaghas
(31.2259°N, 9.0496°W)
Time: 03:51:00
(UTC+00:00)

HJ-1C - Pass Details

Date: 18 September 2020
Orbit: 432 x 443 km, 97.1° (Epoch: 23 October)

Event Time Altitude Azimuth Distance (km) Brightness Sun altitude
Exits shadow 19:56:11 10° 177° (S) 1,545 5.9 -17.5°
Reaches altitude 10° 19:56:13 10° 177° (S) 1,527 5.9 -17.5°
Maximum altitude 19:59:28 64° 260° (W) 484 3.7 -18.2°
Drops below altitude 10° 20:02:44 10° 342° (NNW) 1,539 6.5 -18.9°
Sets 20:04:46 0° 346° (NNW) 2,411 7.5 -19.3°
